Terminal Aerodrome Forecast
Issued by NWS Kansas City/Pleasant Hill, MO

Home | Current Version | Previous Version | Text Only | Print | Product List | Glossary On
Versions: 1 2 3 4 5 6 7 8 9 10 11 12 13
000
FTUS43 KEAX 300520
TAFMCI
TAF
KMCI 300520Z 3006/3106 01005KT P6SM SKC
     FM300900 VRB02KT 6SM BR SKC
     FM301300 02005KT P6SM SCT090 SCT250=

USA.gov is the U.S. government's official web portal to all federal, state and local government web resources and services.